[[{"header":{"parameterUnit":"m.s-1","parameterCategory":1,"la1":30.2991,"la2":30.254,"lo1":-89.0895,"lo2":-89.0444,"dy":0.0017,"dx":0.0017,"nx":28,"ny":28,"refTime":"2024-02-18T09:00:00:Z","depth":0,"parameterNumber":2,"parameterNumberName":"U-component_of_WINDS"},"data":[0,0,0,0,0,0,0,0,0,0,0,0,0,0,0,0,0,0,0,0,0,0,0,0,0,0,0,0,0,0,0,0,0,0,0,0,0,0,0,0,0,0,0,0,0,0,0,0,0,0,0,0,0,0,0,0,0,0,1.1629,1.1628,0,1.1616,1.1616,1.1616,1.156,1.1559,1.1558,1.1556,1.1545,1.1546,1.1547,0,0,0,0,0,0,0,0,0,0,0,0,0,1.1604,1.1605,1.1629,1.1628,1.1628,1.1616,1.1616,1.1616,1.156,1.1559,1.1557,1.1556,1.1544,1.1546,1.1547,0,0,0,0,0,0,0,0,0,0,0,0,0,1.1606,1.1605,1.1629,1.1599,1.1596,1.1616,1.1616,1.1616,1.1561,1.1559,1.1557,1.1555,1.1544,1.1545,1.1547,1.1595,0,0,1.1551,1.1552,0,0,0,0,0,0,0,0,1.1606,1.1607,1.1604,1.1601,1.1598,1.1588,1.1603,1.1609,1.1561,1.1574,1.1556,1.1554,1.1561,1.1561,1.1563,1.1594,1.1594,1.1551,1.1552,1.1553,1.1553,0,0,0,0,0,0,0,1.1606,1.1607,1.1624,1.1604,1.16,1.1587,1.1585,1.1604,1.1579,1.1573,1.1569,1.1568,1.1559,1.1562,1.1562,1.1594,1.1551,1.1552,1.1553,1.1554,1.1664,1.1666,0,0,0,0,0,0,1.161,1.1607,1.1624,1.1623,1.1597,1.1589,1.1586,1.1593,1.1578,1.1574,1.157,1.1566,1.156,1.156,1.1561,1.1617,1.1553,1.1554,1.1555,1.1662,1.1665,1.1667,0,0,0,0,0,0,1.161,1.1612,1.1625,1.1614,1.1615,1.1591,1.1599,1.1594,1.1596,1.1576,1.1571,1.1577,1.1559,1.1559,1.1587,1.1616,1.1554,1.1556,1.166,1.1663,1.1666,1.1728,0,0,0,0,0,0,1.1609,1.1612,1.163,1.1615,1.1616,1.165,1.1601,1.1595,1.1599,1.1593,1.1582,1.1578,1.1557,1.1585,1.1588,1.1616,1.1557,1.1657,1.1661,1.1665,1.1723,1.1733,1.1741,0,0,0,0,0,1.1608,1.1648,1.1631,1.1633,1.1637,1.1652,1.1652,1.1627,1.1601,1.1619,1.1606,1.1578,1.1612,1.1588,1.1591,1.162,1.1655,1.166,1.1664,1.1719,1.1731,1.1741,0,0,0,0,0,0,1.1667,1.1645,1.1626,1.1662,1.1659,1.1643,1.1664,1.1641,1.1645,1.164,1.1609,1.1607,1.1639,1.1632,1.1606,1.1666,1.1629,1.1634,1.1669,1.168,1.1689,1.169,1.1558,0,0,0,0,0,1.1684,1.1697,1.1678,1.1712,1.1711,1.1688,1.1694,1.1675,1.167,1.1669,1.1658,1.1655,1.1665,1.1672,1.168,1.1722,1.1719,1.1743,1.1752,1.176,1.1765,1.1787,1.1798,1.1682,1.1682,1.1682,0,0,1.1719,1.1709,1.172,1.1723,1.1719,1.1734,1.1687,1.1705,1.1716,1.1672,1.1697,1.1689,1.1684,1.1719,1.1733,1.1714,1.1796,1.1766,1.1772,1.1773,1.1793,1.1804,1.1813,1.1686,1.1685,1.1685,0,0,1.1792,1.1785,1.1813,1.1809,1.1803,1.1787,1.1794,1.1781,1.1773,1.1798,1.1765,1.1778,1.1796,1.1793,1.1795,1.1867,1.1841,1.187,1.1917,1.1938,1.1947,1.1955,1.1981,1.1991,1.1875,1.1876,1.1876,0,1.1836,1.1857,1.183,1.185,1.1852,1.1813,1.184,1.1838,1.1835,1.1838,1.1816,1.1838,1.1832,1.1866,1.1883,1.1885,1.1892,1.1871,1.1948,1.1956,1.1963,1.1987,1.1997,1.1879,1.1879,1.1878,1.1878,0,1.1913,1.1928,1.1951,1.1949,1.1954,1.1978,1.1954,1.1962,1.1943,1.193,1.1956,1.1947,1.1953,1.196,1.1941,1.1991,1.1979,1.1954,1.1915,1.1978,1.2,1.2009,1.1884,1.1883,1.1882,1.1881,0,0,1.2022,1.2004,1.2013,1.2011,1.2002,1.2013,1.2035,1.204,1.2048,1.2048,1.2066,1.2082,1.2058,1.2059,1.204,1.2059,1.2117,1.2031,1.203,1.2047,1.2172,1.2191,1.2202,1.21,1.2102,1.2103,1.2172,0,1.2091,1.2127,1.2103,1.2143,1.2157,1.212,1.2139,1.2136,1.2124,1.2134,1.2122,1.2134,1.2101,1.2102,1.2119,1.2106,1.2141,1.2101,1.2117,1.2118,1.2119,1.2214,1.2235,1.23,1.2181,1.2182,1.2183,0,1.2176,1.2179,1.2221,1.2208,1.2213,1.2231,1.2234,1.2244,1.2239,1.223,1.2232,1.2208,1.2229,1.2191,1.222,1.2193,1.2198,1.2193,1.2195,1.2196,1.2154,1.2217,1.2321,1.2331,1.2197,1.2196,1.2195,0,1.2251,1.2265,1.2292,1.2292,1.2278,1.2292,1.2287,1.228,1.2285,1.2288,1.2291,1.2296,1.2299,1.2304,1.2282,1.2257,1.2314,1.2275,1.2307,1.2308,1.2321,1.232,1.2427,1.2324,1.2324,1.2324,1.2324,0,1.2331,1.2358,1.2326,1.2342,1.2372,1.2344,1.2374,1.2365,1.236,1.2374,1.2342,1.2357,1.2327,1.2339,1.2322,1.2349,1.235,1.2343,1.2338,1.2346,1.2347,1.2349,1.2344,1.2327,1.2326,1.2326,1.2325,0,1.242,1.2399,1.2426,1.2411,1.2408,1.243,1.2417,1.2432,1.2418,1.2437,1.244,1.2419,1.2431,1.241,1.2419,1.2408,1.2445,1.2433,1.2447,1.2443,1.2477,1.2474,1.2588,1.2602,1.2491,1.2492,1.2493,0,1.2472,1.2492,1.2479,1.2486,1.2483,1.2495,1.2499,1.2473,1.2479,1.2476,1.2491,1.25,1.2506,1.2527,1.2513,1.252,1.2508,1.2547,1.2509,1.2516,1.2508,1.2507,1.2509,1.2555,1.2557,1.2558,1.2559,0,1.2566,1.2555,1.2563,1.2568,1.2574,1.2577,1.2577,1.2584,1.2557,1.2565,1.2577,1.2582,1.2591,1.2601,1.2604,1.2599,1.2575,1.2571,1.2579,1.2587,1.2594,1.259,1.2468,1.2568,1.2567,1.2567,1.2566,1.2566,1.2638,1.2654,1.2648,1.2658,1.2655,1.2656,1.2669,1.2657,1.2666,1.2672,1.2656,1.2671,1.2666,1.2668,1.2666,1.2678,1.2661,1.2672,1.2675,1.2678,1.2683,1.2592,1.2679,1.2679,1.2678,1.2678,1.2678,0,1.2731,1.2725,1.2735,1.2736,1.2744,1.2719,1.2718,1.2727,1.2741,1.2738,1.2744,1.2758,1.2767,1.2754,1.2761,1.2773,1.2762,1.2776,1.2774,1.2774,1.2699,1.2691,1.2785,1.2785,1.2785,1.2785,1.2785,1.2784,1.2781,1.2807,1.2795,1.2819,1.2813,1.2828,1.2829,1.283,1.2828,1.2844,1.2852,1.2843,1.2836,1.2842,1.285,1.2845,1.285,1.2868,1.286,1.279,1.2779,1.2769,1.2762,1.2869,1.2869,1.2933,1.2934,1.2935]},{"header":{"parameterUnit":"m.s-1","parameterCategory":1,"la1":30.2991,"la2":30.254,"lo1":-89.0895,"lo2":-89.0444,"dy":0.0017,"dx":0.0017,"nx":28,"ny":28,"refTime":"2024-02-18T09:00:00:Z","depth":0,"parameterNumber":3,"parameterNumberName":"V-component_of_WINDS"},"data":[0,0,0,0,0,0,0,0,0,0,0,0,0,0,0,0,0,0,0,0,0,0,0,0,0,0,0,0,0,0,0,0,0,0,0,0,0,0,0,0,0,0,0,0,0,0,0,0,0,0,0,0,0,0,0,0,0,0,-1.7813,-1.7814,0,-1.7872,-1.7873,-1.7873,-1.7887,-1.7886,-1.7886,-1.7885,-1.7943,-1.7944,-1.7946,0,0,0,0,0,0,0,0,0,0,0,0,0,-1.771,-1.7712,-1.7813,-1.7814,-1.7815,-1.7872,-1.7873,-1.7873,-1.7887,-1.7886,-1.7886,-1.7885,-1.7942,-1.7944,-1.7947,0,0,0,0,0,0,0,0,0,0,0,0,0,-1.7761,-1.7713,-1.7813,-1.7828,-1.783,-1.7872,-1.7873,-1.7874,-1.7887,-1.7886,-1.7885,-1.7885,-1.7941,-1.7944,-1.7947,-1.7977,0,0,-1.7956,-1.7957,0,0,0,0,0,0,0,0,-1.7758,-1.7764,-1.7825,-1.7827,-1.783,-1.7871,-1.7857,-1.7908,-1.7887,-1.7865,-1.7885,-1.7885,-1.7919,-1.7924,-1.7936,-1.7979,-1.7982,-1.7956,-1.7958,-1.7959,-1.796,0,0,0,0,0,0,0,-1.7754,-1.7762,-1.7836,-1.7826,-1.7829,-1.7831,-1.7838,-1.7867,-1.7895,-1.7867,-1.7868,-1.7875,-1.792,-1.7933,-1.7938,-1.7983,-1.7956,-1.7958,-1.796,-1.7961,-1.8053,-1.8054,0,0,0,0,0,0,-1.7748,-1.7759,-1.7835,-1.7838,-1.7791,-1.7834,-1.7841,-1.7858,-1.7895,-1.7899,-1.7875,-1.7875,-1.7929,-1.7934,-1.794,-1.7977,-1.7959,-1.7961,-1.7963,-1.8052,-1.8053,-1.8054,0,0,0,0,0,0,-1.7746,-1.7755,-1.7832,-1.7799,-1.7809,-1.7836,-1.7856,-1.786,-1.7873,-1.7901,-1.7906,-1.7884,-1.7928,-1.7936,-1.7967,-1.7979,-1.7963,-1.7965,-1.8051,-1.8053,-1.8054,-1.8051,0,0,0,0,0,0,-1.7743,-1.7754,-1.7766,-1.7799,-1.7811,-1.786,-1.7856,-1.7862,-1.7878,-1.7879,-1.791,-1.7915,-1.7929,-1.7963,-1.797,-1.7982,-1.7968,-1.805,-1.8052,-1.8053,-1.805,-1.8052,-1.8053,0,0,0,0,0,-1.7739,-1.7763,-1.7767,-1.7776,-1.7827,-1.786,-1.7867,-1.7883,-1.7879,-1.7891,-1.7909,-1.7914,-1.7977,-1.7966,-1.7974,-1.7988,-1.805,-1.8051,-1.8053,-1.8049,-1.8051,-1.8053,0,0,0,0,0,0,-1.7729,-1.7767,-1.7772,-1.7807,-1.7831,-1.7863,-1.7878,-1.7885,-1.7909,-1.7909,-1.7927,-1.7934,-1.7965,-1.7979,-1.7967,-1.8018,-1.8013,-1.8016,-1.8007,-1.801,-1.8011,-1.8006,-1.797,0,0,0,0,0,-1.7731,-1.7757,-1.7788,-1.7815,-1.7827,-1.7851,-1.7866,-1.7877,-1.7901,-1.7911,-1.7931,-1.7954,-1.7979,-1.7995,-1.802,-1.8053,-1.8059,-1.8066,-1.8067,-1.8068,-1.8071,-1.8089,-1.8092,-1.8059,-1.8059,-1.8059,0,0,-1.7735,-1.7759,-1.7774,-1.7814,-1.7834,-1.7858,-1.7859,-1.7885,-1.7904,-1.7915,-1.7946,-1.7962,-1.7989,-1.8021,-1.8037,-1.8035,-1.8081,-1.807,-1.8071,-1.8073,-1.8091,-1.8094,-1.8096,-1.806,-1.806,-1.806,0,0,-1.7755,-1.7776,-1.7801,-1.7821,-1.7851,-1.7867,-1.7873,-1.7904,-1.7915,-1.7947,-1.7956,-1.7978,-1.8021,-1.804,-1.8055,-1.8083,-1.8087,-1.809,-1.8098,-1.8115,-1.8118,-1.812,-1.8129,-1.8132,-1.8092,-1.8092,-1.8092,0,-1.7756,-1.7795,-1.7813,-1.7839,-1.7856,-1.7869,-1.7894,-1.7912,-1.7948,-1.7959,-1.7957,-1.8011,-1.803,-1.8067,-1.8074,-1.8086,-1.8093,-1.8086,-1.8116,-1.8118,-1.8121,-1.813,-1.8133,-1.8092,-1.8092,-1.8092,-1.8092,0,-1.7794,-1.7821,-1.7837,-1.7873,-1.7892,-1.7918,-1.7939,-1.7956,-1.7965,-1.7981,-1.8013,-1.8037,-1.8066,-1.8076,-1.8084,-1.8114,-1.8112,-1.8112,-1.8107,-1.8124,-1.8132,-1.8136,-1.8093,-1.8093,-1.8093,-1.8093,0,0,-1.7808,-1.7854,-1.786,-1.7876,-1.7911,-1.7931,-1.7957,-1.7987,-1.8001,-1.8025,-1.8047,-1.8083,-1.8084,-1.8101,-1.8112,-1.8128,-1.8148,-1.8127,-1.8128,-1.8129,-1.8181,-1.8179,-1.8183,-1.8151,-1.8152,-1.8153,-1.8178,0,-1.7832,-1.788,-1.7897,-1.7936,-1.796,-1.7973,-1.7995,-1.8018,-1.8034,-1.8056,-1.8073,-1.8098,-1.8098,-1.8108,-1.8124,-1.8142,-1.8158,-1.814,-1.8171,-1.8172,-1.8163,-1.8188,-1.8186,-1.8209,-1.8182,-1.8182,-1.8183,0,-1.7866,-1.7892,-1.7933,-1.7964,-1.7975,-1.7995,-1.8024,-1.8046,-1.8072,-1.8082,-1.8101,-1.8112,-1.8138,-1.8132,-1.8169,-1.8157,-1.817,-1.8181,-1.8182,-1.8185,-1.8177,-1.819,-1.8217,-1.822,-1.8188,-1.8188,-1.8188,0,-1.7871,-1.7916,-1.7947,-1.7961,-1.7998,-1.8012,-1.8028,-1.8054,-1.807,-1.8095,-1.8106,-1.8134,-1.8148,-1.8169,-1.8186,-1.818,-1.8221,-1.8216,-1.8229,-1.8229,-1.8236,-1.8235,-1.8265,-1.8246,-1.8246,-1.8246,-1.8246,0,-1.7895,-1.792,-1.795,-1.7969,-1.7996,-1.8016,-1.8043,-1.806,-1.8082,-1.8104,-1.8116,-1.8136,-1.8158,-1.818,-1.8194,-1.8222,-1.8229,-1.8237,-1.824,-1.8235,-1.8234,-1.8244,-1.8242,-1.8247,-1.8247,-1.8247,-1.8247,0,-1.7905,-1.7927,-1.7961,-1.7994,-1.8003,-1.8022,-1.805,-1.8068,-1.8084,-1.8112,-1.8119,-1.8144,-1.8171,-1.8191,-1.8225,-1.8234,-1.8264,-1.8268,-1.8256,-1.8257,-1.8269,-1.8267,-1.8304,-1.831,-1.8288,-1.8289,-1.8289,0,-1.7919,-1.7938,-1.7974,-1.799,-1.8006,-1.8031,-1.8049,-1.8069,-1.8087,-1.8118,-1.8132,-1.8161,-1.8184,-1.8227,-1.8248,-1.8274,-1.8278,-1.8289,-1.8282,-1.8276,-1.8277,-1.8275,-1.8277,-1.829,-1.829,-1.829,-1.829,0,-1.794,-1.795,-1.7976,-1.8005,-1.8026,-1.8049,-1.8073,-1.8085,-1.8109,-1.8128,-1.8156,-1.8175,-1.8211,-1.8238,-1.8267,-1.8283,-1.829,-1.8292,-1.8297,-1.8292,-1.8284,-1.8288,-1.8258,-1.8291,-1.8291,-1.8291,-1.8291,-1.8291,-1.7952,-1.797,-1.7998,-1.8026,-1.8046,-1.8068,-1.8087,-1.8106,-1.813,-1.8162,-1.8172,-1.8201,-1.8227,-1.8266,-1.8283,-1.8305,-1.8304,-1.8311,-1.8312,-1.8313,-1.8313,-1.8281,-1.831,-1.831,-1.831,-1.831,-1.831,0,-1.7974,-1.7993,-1.8018,-1.8052,-1.8073,-1.808,-1.8106,-1.8124,-1.815,-1.8174,-1.8197,-1.8229,-1.8256,-1.828,-1.8307,-1.8321,-1.8325,-1.8327,-1.8326,-1.8329,-1.8312,-1.8305,-1.8324,-1.8324,-1.8324,-1.8324,-1.8324,-1.8324,-1.7988,-1.8018,-1.8031,-1.8072,-1.809,-1.812,-1.8134,-1.8154,-1.8174,-1.821,-1.8232,-1.8248,-1.8271,-1.8301,-1.8326,-1.8332,-1.8341,-1.8343,-1.8349,-1.8332,-1.8331,-1.8329,-1.8323,-1.8345,-1.8345,-1.8365,-1.8365,-1.8365]}]]